Date String (YYYY-MM-DD hh:mm:ss) UTC,Instrument flags,Ambient pressure (hPa),Sample flow (lpm),Bypass flow (lpm),Sample temperature (°C),Ambient temperature (°C),ASC tube jacket temperature (°C),LED temperature (°C),Box temperature (°C),Sample RH (%),Span deviation,Mass concentration (μg/m³),Mass concentration (μg/m³),Mass concentration (μg/m³)
DateTimeUTC,F1_M11,P_M11,Q1_M11,Q2_M11,T1_M11,T2_M11,T3_M11,T4_M11,T5_M11,U1_M11,ZSPAN_M11,X0_M11,X2_M11,X1_M11
2022-09-12 20:00:00,,0827.7,5.00,0.00,29.7,27.8,00.0,38.3,31.5,08.9,0001.8,0015.06,0009.68,0009.13
2022-09-12 20:01:00,,0827.7,5.00,0.00,29.7,28.0,00.0,38.3,31.5,09.1,0001.9,0014.77,0009.72,0009.16
2022-09-12 20:02:00,,0827.7,5.00,0.00,29.7,28.2,00.0,38.3,31.6,09.5,0001.5,0014.84,0009.76,0009.18
2022-09-12 20:03:00,,0827.6,5.00,0.00,29.8,28.4,00.0,38.4,31.6,09.1,0001.1,0014.78,0009.78,0009.20
2022-09-12 20:04:00,,0827.6,4.99,0.00,29.8,28.6,00.0,38.4,31.7,09.6,0001.7,0014.44,0009.78,0009.23
2022-09-12 20:05:00,,0827.6,5.00,0.00,29.9,28.6,00.0,38.4,31.8,10.1,0001.5,0014.19,0009.81,0009.24
2022-09-12 20:06:00,,0827.6,4.99,0.00,29.9,27.6,00.0,38.4,31.7,09.8,0001.2,0014.29,0009.83,0009.25
2022-09-12 20:07:00,,0827.5,5.02,0.00,29.8,26.6,00.0,38.4,31.6,09.8,0001.1,0014.70,0009.84,0009.26
2022-09-12 20:08:00,,0827.6,4.99,0.00,29.8,26.7,00.0,38.3,31.6,09.2,0000.8,0014.76,0009.84,0009.27
2022-09-12 20:09:00,,0827.5,4.99,0.00,29.7,26.9,00.0,38.3,31.4,09.6,0000.8,0014.99,0009.84,0009.28
2022-09-12 20:10:00,,0827.5,5.01,0.00,29.7,27.2,00.0,38.3,31.3,09.5,0001.1,0015.17,0009.82,0009.27
2022-09-12 20:11:00,,0827.5,5.00,0.00,29.7,27.6,00.0,38.3,31.4,09.4,0001.2,0015.41,0009.83,0009.25
2022-09-12 20:12:00,,0827.5,5.01,0.00,29.7,27.8,00.0,38.3,31.4,09.9,0001.4,0015.41,0009.84,0009.25
2022-09-12 20:13:00,,0827.5,5.00,0.00,29.7,28.1,00.0,38.3,31.5,09.7,0001.5,0015.42,0009.85,0009.24
2022-09-12 20:14:00,,0827.5,4.98,0.00,29.7,28.3,00.0,38.3,31.6,09.5,0001.6,0015.44,0009.83,0009.23
2022-09-12 20:15:00,,0827.5,5.01,0.00,29.8,28.5,00.0,38.3,31.6,09.0,0001.5,0015.22,0009.83,0009.23
2022-09-12 20:16:00,,0827.5,5.01,0.00,29.8,28.6,00.0,38.4,31.7,09.1,0001.2,0015.04,0009.85,0009.22
2022-09-12 20:17:00,,0827.5,4.98,0.00,29.8,28.5,00.0,38.4,31.7,08.7,0001.2,0014.97,0009.81,0009.21
2022-09-12 20:18:00,,0827.5,5.00,0.00,29.8,27.2,00.0,38.4,31.7,08.6,0000.7,0014.77,0009.82,0009.21
2022-09-12 20:19:00,,0827.5,5.00,0.00,29.8,26.4,00.0,38.3,31.6,08.8,0000.5,0014.47,0009.79,0009.20
2022-09-12 20:20:00,,0827.5,4.99,0.00,29.7,26.6,00.0,38.3,31.5,09.6,0001.1,0014.36,0009.77,0009.19
2022-09-12 20:21:00,,0827.5,5.00,0.00,29.7,26.9,00.0,38.3,31.4,09.3,0001.1,0014.18,0009.81,0009.20
2022-09-12 20:22:00,,0827.6,5.00,0.00,29.6,27.2,00.0,38.3,31.3,09.1,0000.7,0013.84,0009.83,0009.22
2022-09-12 20:23:00,,0827.5,5.00,0.00,29.6,27.6,00.0,38.3,31.4,08.9,0000.9,0013.84,0009.84,0009.24
2022-09-12 20:24:00,,0827.5,5.01,0.00,29.6,27.8,00.0,38.3,31.4,08.9,0000.9,0013.79,0009.80,0009.25
2022-09-12 20:25:00,,0827.5,5.00,0.00,29.7,28.1,00.0,38.3,31.5,09.2,0001.1,0014.00,0009.81,0009.25
2022-09-12 20:26:00,,0827.5,4.99,0.00,29.7,28.3,00.0,38.3,31.6,09.4,0000.7,0013.92,0009.82,0009.25
2022-09-12 20:27:00,,0827.5,5.01,0.00,29.7,28.5,00.0,38.3,31.6,08.9,0000.6,0014.42,0009.83,0009.27
2022-09-12 20:28:00,,0827.4,5.00,0.00,29.8,28.5,00.0,38.3,31.7,08.9,0000.8,0015.30,0009.81,0009.26
2022-09-12 20:29:00,,0827.4,4.99,0.00,29.8,27.5,00.0,38.3,31.7,08.9,0001.5,0015.15,0009.78,0009.25
2022-09-12 20:30:00,,0827.4,5.01,0.00,29.7,26.5,00.0,38.3,31.5,09.5,0001.7,0015.02,0009.79,0009.25
2022-09-12 20:31:00,,0827.4,5.00,0.00,29.7,26.6,00.0,38.3,31.5,08.7,0001.9,0014.88,0009.80,0009.26
2022-09-12 20:32:00,,0827.4,5.00,0.00,29.6,26.9,00.0,38.2,31.4,08.7,0001.7,0014.81,0009.78,0009.26
2022-09-12 20:33:00,,0827.4,5.00,0.00,29.6,27.2,00.0,38.2,31.3,08.6,0001.9,0015.19,0009.73,0009.25
2022-09-12 20:34:00,,0827.3,5.00,0.00,29.6,27.5,00.0,38.2,31.3,08.8,0001.3,0015.55,0009.74,0009.24
2022-09-12 20:35:00,,0827.3,5.00,0.00,29.6,27.8,00.0,38.2,31.4,08.9,0001.4,0015.62,0009.73,0009.24
2022-09-12 20:36:00,,0827.3,5.01,0.00,29.6,28.0,00.0,38.2,31.5,09.0,0001.4,0015.46,0009.74,0009.23
2022-09-12 20:37:00,,0827.3,4.99,0.00,29.7,28.2,00.0,38.3,31.5,09.5,0001.6,0016.60,0009.75,0009.24
2022-09-12 20:38:00,,0827.2,4.99,0.00,29.7,28.4,00.0,38.3,31.6,09.6,0001.9,0016.48,0009.73,0009.20
2022-09-12 20:39:00,,0827.3,5.00,0.00,29.7,28.6,00.0,38.3,31.7,09.4,0001.4,0016.20,0009.73,0009.18
2022-09-12 20:40:00,,0827.2,5.00,0.00,29.8,28.4,00.0,38.3,31.7,08.8,0001.1,0016.90,0009.73,0009.19
2022-09-12 20:41:00,,0827.2,4.98,0.00,29.8,27.1,00.0,38.3,31.6,08.6,0001.3,0017.65,0009.72,0009.18
2022-09-12 20:42:00,,0827.5,5.01,0.00,29.7,26.5,00.0,38.3,31.5,09.1,0001.3,0017.71,0009.72,0009.16
2022-09-12 20:43:00,,0827.3,5.01,0.00,29.7,26.7,00.0,38.2,31.5,09.2,0001.5,0018.17,0009.75,0009.15
2022-09-12 20:44:00,,0827.2,4.98,0.00,29.6,27.0,00.0,38.2,31.3,08.7,0001.5,0018.36,0009.76,0009.16
2022-09-12 20:45:00,,0827.2,5.01,0.00,29.6,27.3,00.0,38.2,31.3,08.8,0001.2,0018.17,0009.72,0009.14
2022-09-12 20:46:00,,0827.2,5.00,0.00,29.6,27.6,00.0,38.2,31.4,08.9,0001.1,0018.06,0009.72,0009.14
2022-09-12 20:47:00,,0827.2,5.00,0.00,29.6,27.9,00.0,38.2,31.4,09.1,0001.4,0018.19,0009.70,0009.10
2022-09-12 20:48:00,,0827.2,5.01,0.00,29.6,28.1,00.0,38.3,31.5,09.0,0001.7,0017.83,0009.62,0009.06
2022-09-12 20:49:00,,0827.2,5.01,0.00,29.7,28.3,00.0,38.3,31.5,08.9,0001.4,0017.07,0009.58,0009.03
2022-09-12 20:50:00,,0827.2,4.99,0.00,29.7,28.5,00.0,38.3,31.6,08.7,0001.6,0017.11,0009.58,0009.03
2022-09-12 20:51:00,,0827.2,5.01,0.00,29.7,28.4,00.0,38.3,31.7,09.0,0001.6,0017.10,0009.55,0009.00
2022-09-12 20:52:00,,0827.2,5.01,0.00,29.8,27.3,00.0,38.3,31.6,09.1,0001.2,0016.78,0009.53,0008.97
2022-09-12 20:53:00,,0827.2,4.99,0.00,29.7,26.4,00.0,38.3,31.5,09.1,0000.7,0017.14,0009.53,0008.95
2022-09-12 20:54:00,,0827.2,4.99,0.00,29.7,26.6,00.0,38.2,31.5,09.9,0000.7,0016.81,0009.47,0008.92
2022-09-12 20:55:00,,0827.2,5.00,0.00,29.6,26.9,00.0,38.2,31.3,09.3,0001.0,0016.26,0009.43,0008.87
2022-09-12 20:56:00,,0827.2,4.99,0.00,29.6,27.2,00.0,38.2,31.3,09.2,0001.6,0016.18,0009.42,0008.83
2022-09-12 20:57:00,,0827.2,5.00,0.00,29.6,27.5,00.0,38.2,31.3,09.4,0001.7,0016.18,0009.38,0008.79
2022-09-12 20:58:00,,0827.2,5.01,0.00,29.6,27.8,00.0,38.2,31.4,08.9,0001.1,0016.02,0009.38,0008.79
2022-09-12 20:59:00,,0827.2,5.01,0.00,29.6,28.0,00.0,38.2,31.4,08.9,0001.0,0015.56,0009.38,0008.77
